Regional Weather Roundup
Issued by NWS Charleston, SC

Current Version | Previous Version | Graphics & Text | Print | Product List | Glossary On
Versions: 1 2 3 4 5 6 7 8 9 10 11 12 13 14 15 16 17 18 19 20 21 22 23 24 25 26 27 28 29 30 31 32 33 34 35 36 37 38 39 40 41 42 43 44 45 46 47 48 49 50
000 ASUS42 KCHS 040912 RWRCHS REGIONAL WEATHER ROUNDUP NATIONAL WEATHER SERVICE CHARLESTON SC 500 AM EDT SAT JUL 04 2015 NOTE: "FAIR" INDICATES FEW OR NO CLOUDS BELOW 12,000 FEET WITH NO SIGNIFICANT WEATHER AND/OR OBSTRUCTIONS TO VISIBILITY. NOT ALL STATIONS ARE QUALITY CONTROLLED BY THE NATIONAL WEATHER SERVICE. USE DATA WITH CAUTION...ESPECIALLY DEWPOINT OBSERVATIONS. SCZ027-030-031-034>040-042>050-041000- ...SOUTHEAST SOUTH CAROLINA... CITY SKY/WX TMP DP RH WIND PRES REMARKS N CHARLESTON CLEAR 72 67 84 CALM 30.04R WATERFRONT PAR N/A 77 67 71 CALM 30.00F MOUNT PLEASANT LGT RAIN 70 70 100 S3 30.03R JOHNS ISLAND FAIR 75 72 88 CALM 30.04R PINOPOLIS NOT AVBL MONCKS CORNER FAIR 70 66 88 CALM 30.04R SUMMERVILLE FAIR 68 68 100 CALM 30.04R BEAUFORT MCAS PTCLDY 77 73 87 W3 30.04R BEAUFORT ARPT FAIR 79 73 83 SW6 30.03S HILTON HEAD IS CLEAR 81 73 78 S8 30.05R WALTERBORO MOSUNNY 70 66 88 CALM 30.05R ALLENDALE FAIR 70 68 94 CALM 30.03S ...SOUTHERN MIDLANDS AND PEE DEE... CITY SKY/WX TMP DP RH WIND PRES REMARKS GEORGETOWN NOT AVBL KINGSTREE NOT AVBL ORANGEBURG MOCLDY 71 68 90 S6 30.03F BARNWELL FAIR 72 70 94 S5 30.04S AIKEN NOT AVBL MANNING HVY RAIN 70 68 94 W18G29 30.06R COLUMBIA LGT RAIN 71 66 84 W3 30.00F SUMTER TSTM 72 68 88 SW12 30.00R FLORENCE PTCLDY 76 70 82 SW13 29.99R MYRTLE BEACH MOCLDY 75 66 73 W14G20 30.02R N MYRTLE BEACH PTCLDY 78 68 71 W10G21 29.98S $$ GAZ063-065-086>088-099>101-113>116-118-119-134>141-150-041000- ...SOUTHEAST GEORGIA... CITY SKY/WX TMP DP RH WIND PRES REMARKS SAVANNAH ARPT CLEAR 77 71 82 SW7 30.05R HUNTER AAF PTCLDY 77 73 88 SW7 30.03R FORT STEWART CLEAR 76 71 85 SW6 30.03R STATESBORO NOT AVBL SYLVANIA MOSUNNY 74 74 99 CALM 30.05S CLAXTON FAIR 75 73 94 CALM 30.05R ...CSRA...CENTRAL AND FAR SOUTHEAST GEORGIA... CITY SKY/WX TMP DP RH WIND PRES REMARKS THOMSON CLOUDY 73 71 92 W13G21 30.11R AUGUSTA-BUSH CLOUDY 71 69 93 CALM 30.03R AUGUSTA-DANIEL CLOUDY 70 67 90 SW5 30.05R SWAINSBORO FAIR 73 70 88 W3 30.06R VIDALIA CLEAR 75 72 88 SW3 30.06R EASTMAN PTSUNNY 73 70 92 CALM 30.10R HAZLEHURST FAIR 77 76 98 CALM 30.05F ALMA PTCLDY 75 73 93 W5 30.07R WAYCROSS PTCLDY 78 77 97 SW5 30.07R JESUP FAIR 77 73 88 SW3 30.07R BAXLEY FAIR 77 73 88 W5 30.06S BRUNSWICK MOCLDY 79 73 83 SW7 30.08R SAINT SIMONS MOCLDY 78 73 84 SW9 30.07R $$ SCZ027-028-034-036>038-045-046-048>050-GAZ119-141-041000- ...LAKE AND SUPPLEMENTAL COASTAL OBSERVATIONS... STATION/POSITION TIME TEMP WIND PRES WAVE SWELL AIR SEA DIR/SP/G HT/PER HT/PER/DIR (UTC) (F) (DEG/KT/KT) (MB) (FT/S) (FT/S/D) UPR LAKE MARION NOT AVBL WINYAH BAY 0745 75 240/ 10 1015.0 LAKE MURRAY 0800 75 220/ 24/ 37 1015.2R ACE BASIN NERRS NOT AVBL FORT PULASKI 0800 79 84 210/ 5/ 8 1017.5R SAPELO ISLAND 0800 78 210/ 7 1017.0S $$ ANZ835-935-AMZ111-154-330-350-352-354-370-450-454-472-041000- ...C-MAN AND BUOY OBSERVATIONS... STATION/POSITION TIME TEMP WIND PRES WAVE SWELL AIR SEA DIR/SP/G HT/PER HT/PER/DIR (UTC) (F) (DEG/KT/KT) (MB) (FT/S) (FT/S/D) BUOY 41004 0850 82 81 220/ 17/ 21 1016.3R 6/ 5 2/ 9 BUOY 41008 0850 80 79 230/ 12/ 14 1017.9R 3/ 8 2/120/ 8 FOLLY BEACH CMAN 0800 77 340/ 3/ 4 1017.0S CAPERS NEARSHORE 0808 79 280/ 10/ 14 1017.0F FRIPP NEARSHORE 0800 82 220/ 17/ 19 1016.5 STATION/POSITION TIME TEMP WIND PRES WAVE SWELL AIR SEA DIR/SP/G HT/PER HT/PER/DIR (UTC) (F) (DEG/KT/KT) (MB) (FT/S) (FT/S/D) 5E ST. MARYS GA 0821 76 N/A 2/ 9 FRYING PAN BUOY 0850 81 79 230/ 21/ 27 1015.4F 5/ 6 2/150/10 BUOY 41025 0850 81 81 250/ 27/ 31 1012.2F 9/ 8 2/230/11 CAPE LOOKOUT NC 0800 80 240/ 14/ 21 1013.4F BUOY 41002 0850 81 80 230/ 14/ 16 1018.8S 5/ 6 3/240/ 7 BUOY 41010 0820 83 84 190/ 10/ 12 1019.2F ST AUGUSTINE FL 0900 74 73 230/ 4/ 5 1019.4R $$

USA.gov is the U.S. government's official web portal to all federal, state and local government web resources and services.